Torna al catalogo

STARLINK-36266

AttivoComunicazioniSSO
NORAD 67984·PAYLOAD·🇺🇸 United States

Lanciato Feb 25, 2026 da Vandenberg Space Force Base

Loading…

Prossimi Passaggi (prossime 24 ore)

TLE

AggiornatoSource: CelesTrak SupGP

Epoca: Sep 14, 2026, 21:26 UTC

1 67984C 26038Z   26257.89354167  .00044501  00000+0  13816-2 0  2579
2 67984  97.2842 266.3876 0001567  90.3105 103.0205 15.33412417    16

Traccia STARLINK-36266 in tempo reale con AllMySat

Download on the App Store